Tracking 31030 objects as of 15-Jul-2025
HD Live streaming from Space Station
objects crossing your sky now

STARLINK-31594

Track STARLINK-31594 now!
10-day predictions
STARLINK-31594 is classified as:


NORAD ID: 59332
Int'l Code: 2024-057N
Perigee: 489.4 km
Apogee: 491.0 km
Inclination: 43.0 °
Period: 94.3 minutes
Semi major axis: 6861 km
RCS: Unknown
Launch date: March 25, 2024
Source: United States (US)
Launch site: AIR FORCE EASTERN TEST RANGE (AFETR)
Your satellite tracking list
Your tracking list is empty




NASA's NSSDC Master Catalog

Two Line Element Set (TLE):
1 59332U 24057N   25196.04373140 -.00000646  00000-0 -13970-4 0  9997
2 59332  43.0033 100.4688 0001134 264.4794  95.5928 15.27572097 74542
Source of the keplerian elements: AFSPC